[Date Prev][Date Next][Thread Prev][Thread Next] - [Date Index][Thread Index][Author Index]

2 LIne ISS Keps 7-25



ISS
1 25544U 98067A   01206.21235503 -.00277264  00000-0 -37391-2 0  2538
2 25544  51.6163 256.3752 0012831 302.2364 101.8039 15.57940377153020


----
Via the sarex mailing list at AMSAT.ORG courtesy of AMSAT-NA.
To unsubscribe, send "unsubscribe sarex" to Majordomo@amsat.org



AMSAT Top AMSAT Home